Regional Weather Roundup
Issued by NWS

Home | Current Version | Previous Version | Text Only | Print | Product List | Glossary On
Versions: 1 2 3 4 5 6 7 8 9 10 11 12 13 14 15 16 17 18 19 20 21 22 23 24 25 26 27 28 29 30 31 32 33 34 35 36 37 38 39 40 41 42 43 44 45 46 47 48 49 50
000
ASHW40 PHFO 291243
RWRHI

WEATHER ROUNDUP FOR HAWAII
NATIONAL WEATHER SERVICE HONOLULU HI
200 AM HST FRI JUL 29 2016

THIS IS AN AUTOMATED REPORT THAT HAS NOT BEEN QUALITY CONTROLLED.

NOTE..."FAIR" INDICATES FEW OR NO CLOUDS BELOW 12,000 FEET WITH NO
SIGNIFICANT WEATHER AND/OR OBSTRUCTIONS TO VISIBILITY.

* - THESE SITES REPORT LIMITED FIELDS

HIZ001>004-291300-
KAUAI-NIIHAU-

CITY           SKY/WX    TMP DP  RH WIND       PRES   REMARKS
LIHUE APT      PTCLDY    77  66  68 NE10      30.07F
PORT ALLEN*      N/A     75 N/A N/A E13         N/A
POIPU*           N/A     77 N/A N/A NE10G20     N/A
PRINCEVILLE*     N/A     75 N/A N/A SE5G13      N/A
KOKOLE POINT*  NOT AVBL
MOLOAA DAIRY*    N/A     75  66  73 E3G12       N/A
WAIMEA HTS*      N/A    N/A N/A N/A VRB2        N/A
PUU OPAE*        N/A     66  57  72 E3          N/A
PUU LUA*       NOT AVBL
MAKAHA RIDGE*    N/A     70  59  68 E3G9        N/A
$$

HIZ005>011-291300-
OAHU-

CITY           SKY/WX    TMP DP  RH WIND       PRES   REMARKS
HONOLULU       PTCLDY    78  65  63 NE9       30.02F
KALAELOA       PTCLDY    78  65  63 VRB3      30.03F
KANEOHE MCB    PTCLDY    78  68  71 NE9       30.00F
WHEELER FIELD  FAIR      74  66  75 NE10      30.04F
BELLOWS*         N/A    N/A N/A N/A NE18        N/A
KAHUKU*          N/A    N/A N/A N/A VRB7G14     N/A
WHEELER*         N/A    N/A N/A N/A N3          N/A
WAIANAE HARBOR   N/A    N/A N/A N/A NE5G12      N/A
DILLINGHAM*      N/A     90  82  79 MISG        N/A  HX 111
KAHUKU TRN*      N/A     73  66  78 W8G22       N/A
KAWAILOA*        N/A     72  63  73 E10G20      N/A
KII*             N/A     79  68  69 E17G24      N/A
MAKUA RANGE*     N/A     75  66  73 W7G15       N/A
OAHU FOREST NW   N/A    N/A N/A N/A E18G33      N/A
SCHOFIELD BRK*   N/A     72  64  78 MISG        N/A
SCHOFIELD S*   NOT AVBL
WAIANAE VLY*     N/A     73  63  68 S6G16       N/A
KUAOKALA*        N/A     73  66  78 NE15G24     N/A
HONOULIUULI*   NOT AVBL
MOKUOLOE IS*   NOT AVBL
PALEHUA*         N/A     66  64  94 NE7G18      N/A
WAIAWA PHB*    NOT AVBL
$$

HIZ012>013-291300-
MOLOKAI-

CITY           SKY/WX    TMP DP  RH WIND       PRES   REMARKS
MOLOKAI AIRPT  MOCLDY    77  66  68 NE12      30.03F
KALAUPAPA      NOT AVBL
MAKAPULAPAI*     N/A     77  68  73 E18G26      N/A
MOLOKAI 1*       N/A     66  59  77 NE5G14      N/A
PUU ALII*        N/A     59  59 100 N3G15       N/A
$$

HIZ016-291300-
KAHOOLAWE-

CITY           SKY/WX    TMP DP  RH WIND       PRES   REMARKS
KAHOOLAWE*     NOT AVBL
HAKIOAWA*        N/A     72  66  81 MISG      30.41S
HONOKANAIA*      N/A     78  67  69 N12G18    29.94F
KANELOA*         N/A     75  68  78 E5G23     30.07F
KEALIALALO*    NOT AVBL
LUA MAKIKA*    NOT AVBL
$$

HIZ014>015-291300-
LANAI-

CITY           SKY/WX    TMP DP  RH WIND       PRES   REMARKS
LANAI CITY     FAIR      71  65  81 NE12G29   30.05F
LANAI 1*         N/A     72  64  78 NE16G26     N/A
$$

HIZ017>028-291300-
MAUI-

CITY           SKY/WX    TMP DP  RH WIND       PRES   REMARKS
KAHULUI        PTCLDY    77  68  73 NE12G20   30.00F
KAPALUA-W MAUI NOT AVBL
HANA AIRPORT     N/A     77  68  73 N3        30.04F
HANA*            N/A     77 N/A N/A NE7         N/A
HALEAKALA SUMM   N/A     43  18  36 NE21G43     N/A
MAALAEA BAY*     N/A     77 N/A N/A N17G31      N/A
HALEAKALA*     NOT AVBL
KAUPO GAP*       N/A     75  45  33 N9G30       N/A
KULA 1*          N/A    N/A N/A N/A E5          N/A
$$

HIZ023>026-291300-
BIG ISLAND OF HAWAII COAST AND LOWER SLOPES-

CITY           SKY/WX    TMP DP  RH WIND       PRES   REMARKS
KAILUA KONA    CLOUDY    80  65  59 NE8       29.94S
HILO           PTCLDY    77  70  78 NW5       29.99F
HONOKAA*         N/A     70 N/A N/A VRB1        N/A
KAWAIHAE MWT*    N/A     82 N/A N/A SE2G12      N/A
KAWAIHAE*        N/A     82 N/A N/A SW9       29.92F
SOUTH POINT*     N/A     72 N/A N/A NE9         N/A
UPOLU AIRPORT*   N/A    N/A N/A N/A NE22G30     N/A
KAMUELA*       MOSUNNY   64  59  82 NE26      30.06S
HAKALAU*         N/A     48  37  66 VRB5G10     N/A
KALOKO-HONOKO*   N/A     75  64  69 NE5       29.93S
PALI 2*          N/A     64  55  72 S17G26      N/A
KEALAKOMO*       N/A     77  64  65 N18G26      N/A
KAUPULEHU*       N/A    N/A N/A N/A SE7         N/A
KAPAPALA*        N/A     62  58  85 E2          N/A
LOWER KAHUKU*    N/A    N/A N/A N/A VRB1        N/A
PUHE CS*         N/A     81  54  39 E6G25       N/A
PUHO CS*       NOT AVBL
PTA KEAMUKU*     N/A     63  54  72 CALM        N/A
WAIKOLOA*        N/A     73  55  53 NE16G30     N/A
$$

HIZ027>028-291300-
BIG ISLAND OF HAWAII INTERIOR AND SUMMMITS-

CITY           SKY/WX    TMP DP  RH WIND       PRES   REMARKS
BRADSHAW FIELD PTCLDY    50  42  75 SE6       30.29F
MK VISITOR CEN   N/A     54  10  17 VRB12       N/A
MAUNA KEA*       N/A     36 -15  11 SE12        N/A  WCI  27
MAUNA LOA*       N/A     39  10  30 MISG        N/A
MAUNA LOA 1*   NOT AVBL
PTA KIPUKA*      N/A     77  77 100 S3G12       N/A
PTA RANGE 17*    N/A     81  66  61 E9G17       N/A
PTA WEST*        N/A     79  72  78 SE7G14      N/A
NENE CABIN*      N/A    N/A N/A N/A NW5         N/A
AHUMOA*          N/A     50  34  54 NE5         N/A
PTA PORTABLE*  NOT AVBL
PUU MALI*        N/A     54  36  50 E17         N/A
$$

HIC003-291300-
NORTHWEST ISLANDS-

CITY           SKY/WX    TMP DP  RH WIND       PRES   REMARKS
MIDWAY ISLAND  LGT RAIN  75  73  94 NE8       30.08F
MIDWAY NOS*      N/A     79 N/A N/A MISG      30.07F
FRENCH FRIGATE NOT AVBL
$$

PHZ110>124-180-291300-
BUOY REPORTS

STATION/POSITION TIME  TEMP    WIND        PRES    WAVE   SWELL
                       AIR SEA DIR/SP/G            HT/PER HT/DIR
                 (UTC) (F)     (DEG/KT/KT) (MB)    (FT/S) (FT/D)
BUOY 51001       1200   81 82   90/ 14/ 17 1016.5F
BUOY 51101       1150   79 79   70/ 17/ 19 1019.2F   7/ 7   3/100
BUOY 51100       NOT AVBL
BUOY 51002       1150   81 82   80/ 17/ 21 1013.1F   7/ 8   5
BUOY 51003       1150   81 82   60/ 16/ 19 1014.6F   8/ 8   5/100
BUOY 51004       1150   79 81   60/ 14/ 16 1013.6F   7/10   7/ 80
BARBERS PT BUOY  NOT AVBL
WAIMEA BAY BUOY  1204      80                N/A     5/ 8
KAILUA BAY BUOY  1111      80                N/A     8/ 8   2/ 70
LANAI BUOY       1115      81                N/A     3/14   2/190
BARBERS PT 2     NOT AVBL
PAUWELA MAUI     1209      80                N/A     6/ 7   2/ 80
HILO             1212      79                N/A     6/ 8   2/ 80
KANEOHE BAY BUOY 1206      79                N/A     7/ 8
HANALEI KAUAI    NOT AVBL
KAHULUI HARBOR   1200   78 81   50/ 13/ 19 1016.0F
HONOLULU HARBOR  1200   78 80   60/  6/ 10 1017.0F
KILO NALU        NOT AVBL
HILO HARBOR      1200   77 78  320/  8/ 10 1015.3F
MOKUOLOE         1100   79 83   70/ 14/ 18 1017.4F
NAWILIWILI       1200      82                N/A
WHOTS BUOY       NOT AVBL
BUOY 51028       NOT AVBL
$$

......................KEY........................................
  SKY/WX - SKY CONDITIONS/PRESENT WEATHER
  TMP    - TEMPERATURE IN FAHRENHEIT
  DWPT   - DEWPOINT IN FAHRENHEIT
  RH     - RELATIVE HUMIDITY IN PERCENT
  WIND   - DIRECTION AND SPEED /MPH FOR ISLANDS...KTS FOR BUOYS/
  PRES   - MEAN SEA LEVEL PRESSURE IN INCHES OF HG
  VSB    - VISIBILITY IN MILES
  HX     - HEAT INDEX
  WCI    - WIND CHILL INDEX
  VRB    - VARIABLE WIND DIRECTION
  N/A    - NOT AVAILABLE




USA.gov is the U.S. government's official web portal to all federal, state and local government web resources and services.